GW0828 Weather Reports


Display with metric or nautical units.
time (UTC)temp
F
wind
direction
speed
MPH
gust
MPH
rain 1hr
in
rain 24hr
in
rain mn
in
humidity
%
barometer
mb
20260904171619 82 88 1.0 8.0 0.00 0.00 0.00 36 1017.3
20260904171038 82 194 2.0 9.0 0.00 0.00 0.00 33 1017.4
20260904170538 82 162 4.0 9.0 0.00 0.00 0.00 31 1017.4
20260904170057 82 171 2.0 11.0 0.00 0.00 0.00 32 1017.5
20260904165559 82 190 4.0 11.0 0.00 0.00 0.00 34 1017.5
20260904165040 81 86 3.0 8.0 0.00 0.00 0.00 33 1017.6
20260904164600 80 111 2.0 7.0 0.00 0.00 0.00 33 1017.7
20260904164038 80 106 1.0 5.0 0.00 0.00 0.00 36 1017.7
20260904163539 80 0 1.0 5.0 0.00 0.00 0.00 30 1017.7
20260904163104 80 187 1.0 5.0 0.00 0.00 0.00 33 1017.7
20260904162538 80 162 1.0 6.0 0.00 0.00 0.00 36 1017.6
20260904162037 79 131 3.0 6.0 0.00 0.00 0.00 39 1017.6
20260904161610 78 133 1.0 6.0 0.00 0.00 0.00 40 1017.7
20260904161038 78 137 2.0 6.0 0.00 0.00 0.00 37 1017.6
20260904160539 77 152 3.0 6.0 0.00 0.00 0.00 40 1017.6
20260904155539 76 157 2.0 5.0 0.00 0.00 0.00 44 1017.5
20260904155040 75 182 1.0 4.0 0.00 0.00 0.00 47 1017.6
20260904154600 75 0 0.0 4.0 0.00 0.00 0.00 49 1017.6
20260904154039 74 0 1.0 4.0 0.00 0.00 0.00 50 1017.6
20260904153539 73 61 1.0 4.0 0.00 0.00 0.00 50 1017.6
20260904153110 73 0 1.0 4.0 0.00 0.00 0.00 48 1017.5
20260904152538 73 178 0.0 4.0 0.00 0.00 0.00 49 1017.5
20260904152038 72 173 1.0 3.0 0.00 0.00 0.00 51 1017.6
20260904151600 72 81 1.0 4.0 0.00 0.00 0.00 51 1017.5
20260904151038 71 0 1.0 5.0 0.00 0.00 0.00 51 1017.5
20260904150540 71 81 1.0 6.0 0.00 0.00 0.00 53 1017.4
20260904150057 71 165 1.0 6.0 0.00 0.00 0.00 53 1017.3
20260904145539 70 167 1.0 7.0 0.00 0.00 0.00 53 1017.3
20260904145040 70 152 1.0 7.0 0.00 0.00 0.00 54 1017.2
20260904144610 69 158 1.0 6.0 0.00 0.00 0.00 54 1017.3
20260904144038 67 160 2.0 5.0 0.00 0.00 0.00 57 1017.2
20260904143538 65 175 2.0 4.0 0.00 0.00 0.00 60 1017.2
20260904143120 64 187 1.0 4.0 0.00 0.00 0.00 62 1017.3
20260904142538 64 154 0.0 3.0 0.00 0.00 0.00 64 1017.3
20260904142038 63 0 0.0 3.0 0.00 0.00 0.00 66 1017.2
20260904141600 62 179 1.0 3.0 0.00 0.00 0.00 66 1017.2
20260904141037 62 180 1.0 2.0 0.00 0.00 0.00 67 1017.1
20260904140541 62 0 0.0 2.0 0.00 0.00 0.00 69 1017.2
20260904140100 61 0 0.0 3.0 0.00 0.00 0.00 70 1017.1
20260904135539 61 0 0.0 5.0 0.00 0.00 0.00 69 1017.0
20260904135038 60 156 2.0 5.0 0.00 0.00 0.00 70 1016.8
20260904134559 60 173 1.0 3.0 0.00 0.00 0.00 70 1016.7
20260904134039 60 0 0.0 3.0 0.00 0.00 0.00 71 1016.6
20260904133538 59 0 0.0 3.0 0.00 0.00 0.00 72 1016.5
20260904133111 59 172 1.0 3.0 0.00 0.00 0.00 74 1016.5
20260904132538 58 214 0.0 1.0 0.00 0.00 0.00 76 1016.4
20260904132037 57 0 0.0 2.0 0.00 0.00 0.00 75 1016.2
20260904131556 56 0 0.0 2.0 0.00 0.00 0.00 76 1016.1
20260904131038 56 214 0.0 2.0 0.00 0.00 0.00 77 1016.1
20260904130537 55 0 0.0 2.0 0.00 0.00 0.00 77 1016.0
20260904130106 55 0 1.0 2.0 0.00 0.00 0.00 78 1016.0
20260904125538 55 0 0.0 1.0 0.00 0.00 0.00 77 1015.9
20260904125038 55 0 0.0 1.0 0.00 0.00 0.00 77 1015.8
20260904124557 55 233 0.0 3.0 0.00 0.00 0.00 77 1015.7
20260904124037 55 0 0.0 3.0 0.00 0.00 0.00 75 1015.7
20260904123538 55 0 1.0 5.0 0.00 0.00 0.00 75 1015.7
20260904123101 55 151 1.0 5.0 0.00 0.00 0.00 75 1015.6
20260904122538 55 144 1.0 5.0 0.00 0.00 0.00 74 1015.6
20260904122038 55 164 3.0 6.0 0.00 0.00 0.00 74 1015.6
20260904121555 55 201 0.0 6.0 0.00 0.00 0.00 73 1015.4
20260904121037 55 0 1.0 6.0 0.00 0.00 0.00 73 1015.2
20260904120538 56 254 1.0 4.0 0.00 0.00 0.00 73 1015.1
20260904120106 56 253 2.0 4.0 0.00 0.00 0.00 73 1015.2
20260904115538 56 0 1.0 3.0 0.00 0.00 0.00 73 1015.2
20260904115038 56 0 0.0 2.0 0.00 0.00 0.00 73 1015.2
20260904114552 56 293 0.0 2.0 0.00 0.00 0.00 72 1015.1
20260904114038 56 0 0.0 2.0 0.00 0.00 0.00 73 1015.2
20260904113538 57 275 0.0 3.0 0.00 0.00 0.00 73 1015.2
20260904113100 57 0 0.0 3.0 0.00 0.00 0.00 73 1015.2
20260904112537 57 285 0.0 2.0 0.00 0.00 0.00 73 1015.2
20260904112037 57 0 0.0 1.0 0.00 0.00 0.00 72 1015.4
20260904111558 58 0 0.0 1.0 0.00 0.00 0.00 72 1015.4
20260904111038 58 0 0.0 1.0 0.00 0.00 0.00 71 1015.4
20260904110538 58 24 0.0 0.0 0.00 0.00 0.00 70 1015.4
20260904110104 58 0 0.0 2.0 0.00 0.00 0.00 69 1015.4
20260904105542 59 0 0.0 3.0 0.00 0.00 0.00 68 1015.5
20260904105038 59 0 1.0 6.0 0.00 0.00 0.00 68 1015.5
20260904104600 59 335 1.0 6.0 0.00 0.00 0.00 68 1015.4
20260904104038 59 31 3.0 5.0 0.00 0.00 0.00 69 1015.4
20260904103541 59 22 1.0 3.0 0.00 0.00 0.00 69 1015.4
20260904103059 59 65 1.0 4.0 0.00 0.00 0.00 71 1015.4
20260904102538 59 63 1.0 7.0 0.00 0.00 0.00 69 1015.4
20260904102038 59 31 2.0 7.0 0.00 0.00 0.00 68 1015.2
20260904101557 60 6 2.0 7.0 0.00 0.00 0.00 68 1015.1
20260904101040 60 18 3.0 8.0 0.00 0.00 0.00 68 1015.2
20260904100540 59 23 4.0 8.0 0.00 0.00 0.00 67 1015.1
20260904100056 59 320 3.0 8.0 0.00 0.00 0.00 67 1015.1
20260904095538 59 13 4.0 9.0 0.00 0.00 0.00 67 1015.1
20260904095038 60 21 4.0 10.0 0.00 0.00 0.00 67 1015.1
20260904094600 60 34 4.0 10.0 0.00 0.00 0.00 67 1015.1
20260904094038 60 342 4.0 8.0 0.00 0.00 0.00 68 1015.2
20260904093538 60 23 3.0 8.0 0.00 0.00 0.00 68 1015.1
20260904093058 60 25 4.0 8.0 0.00 0.00 0.00 68 1015.2
20260904092537 60 6 3.0 7.0 0.00 0.00 0.00 68 1015.1
20260904092038 60 11 2.0 5.0 0.00 0.00 0.00 67 1015.1
20260904091554 61 8 3.0 5.0 0.00 0.00 0.00 67 1015.1
20260904091038 61 24 3.0 6.0 0.00 0.00 0.00 67 1015.2
20260904090538 62 10 3.0 6.0 0.00 0.00 0.00 67 1015.1
20260904090059 62 18 2.0 6.0 0.00 0.00 0.00 65 1015.1
20260904085538 61 313 1.0 4.0 0.00 0.00 0.00 64 1015.1
20260904085038 61 280 1.0 4.0 0.00 0.00 0.00 65 1015.2
20260904084601 61 275 0.0 4.0 0.00 0.00 0.00 65 1015.1
20260904084041 61 320 1.0 3.0 0.00 0.00 0.00 65 1015.1
20260904083540 61 0 0.0 4.0 0.00 0.00 0.00 64 1015.2
20260904083105 61 0 0.0 6.0 0.00 0.00 0.00 64 1015.2
20260904082538 62 248 2.0 6.0 0.00 0.00 0.00 64 1015.2
20260904082039 62 241 3.0 4.0 0.00 0.00 0.00 65 1015.1
20260904081601 62 246 1.0 7.0 0.00 0.00 0.00 64 1015.1
20260904081041 62 82 0.0 7.0 0.00 0.00 0.00 63 1015.2
20260904080540 62 78 2.0 3.0 0.00 0.00 0.00 63 1015.1
20260904080118 63 0 0.0 4.0 0.00 0.00 0.00 62 1014.9
20260904075538 63 337 0.0 4.0 0.00 0.00 0.00 62 1014.9
20260904075038 63 13 0.0 2.0 0.00 0.00 0.00 63 1015.0
20260904074557 63 31 1.0 3.0 0.00 0.00 0.00 62 1015.0
20260904074041 63 0 0.0 3.0 0.00 0.00 0.00 61 1015.0
20260904073537 63 15 1.0 3.0 0.00 0.00 0.00 60 1015.0
20260904073111 64 0 0.0 2.0 0.00 0.00 0.00 61 1015.1
20260904072542 64 0 0.0 3.0 0.00 0.00 0.00 61 1015.0
20260904072038 64 347 1.0 3.0 0.00 0.00 0.00 59 1015.1
20260904071603 64 347 1.0 3.0 0.00 0.00 0.00 58 1014.9
20260904071038 65 347 0.0 2.0 0.00 0.00 0.00 58 1014.7
20260904070538 65 347 0.0 2.0 0.00 0.00 0.00 58 1014.7
20260904070101 65 0 0.0 2.0 0.00 0.00 0.00 57 1014.8
20260904065537 65 0 0.0 2.0 0.00 0.00 0.00 57 1014.8
20260904065038 66 0 0.0 2.0 0.00 0.00 0.00 57 1014.8
20260904064559 66 169 0.0 2.0 0.00 0.00 0.00 55 1014.8
20260904064040 67 347 0.0 2.0 0.00 0.00 0.00 54 1014.7
20260904063540 67 0 0.0 1.0 0.00 0.00 0.00 54 1014.7
20260904063112 67 0 0.0 6.0 0.00 0.00 0.00 55 1014.7
20260904062537 67 0 0.0 6.0 0.00 0.00 0.00 54 1014.6
20260904062040 67 71 2.0 6.0 0.00 0.00 0.00 55 1014.5
20260904061549 68 0 0.0 5.0 0.00 0.00 0.00 58 1014.5
20260904061040 68 347 0.0 2.0 0.00 0.00 0.00 58 1014.6
20260904060538 68 0 1.0 4.0 0.00 0.00 0.00 53 1014.6
20260904055537 69 260 0.0 2.0 0.00 0.00 0.00 51 1014.6
20260904055037 69 0 0.0 4.0 0.00 0.00 0.00 50 1014.6
20260904054558 69 262 0.0 4.0 0.00 0.00 0.00 48 1014.6
20260904054041 70 244 1.0 5.0 0.00 0.00 0.00 49 1014.6
20260904053537 70 0 1.0 7.0 0.00 0.00 0.00 47 1014.4
20260904053113 70 97 2.0 8.0 0.00 0.00 0.00 47 1014.3
20260904052537 69 74 2.0 8.0 0.00 0.00 0.00 47 1014.3
20260904052038 69 35 4.0 11.0 0.00 0.00 0.00 47 1014.3
20260904051551 69 51 4.0 11.0 0.00 0.00 0.00 48 1014.4
20260904051038 69 42 5.0 9.0 0.00 0.00 0.00 49 1014.5
20260904050537 69 38 3.0 7.0 0.00 0.00 0.00 46 1014.7
20260904045538 69 40 2.0 4.0 0.00 0.00 0.00 46 1015.0
20260904045038 69 0 0.0 3.0 0.00 0.00 0.00 46 1015.1
20260904044612 69 60 1.0 4.0 0.00 0.00 0.00 46 1015.0
20260904044038 69 30 0.0 4.0 0.00 0.00 0.00 46 1014.9
20260904043538 70 29 1.0 3.0 0.00 0.00 0.00 45 1014.9
20260904043100 70 31 1.0 4.0 0.00 0.00 0.00 44 1014.8
20260904042537 70 36 2.0 4.0 0.00 0.00 0.00 44 1014.9
20260904042041 70 28 0.0 3.0 0.00 0.00 0.00 44 1015.0
20260904041605 71 342 0.0 4.0 0.00 0.00 0.00 43 1015.1
20260904041038 71 0 0.0 4.0 0.00 0.00 0.00 43 1015.1
20260904040537 71 53 1.0 4.0 0.00 0.00 0.00 42 1015.1
20260904040104 71 0 0.0 2.0 0.00 0.00 0.00 44 1015.1
20260904035537 72 0 0.0 1.0 0.00 0.00 0.00 44 1015.1
20260904035037 72 0 0.0 3.0 0.00 0.00 0.00 45 1015.1
20260904034602 73 0 0.0 3.0 0.00 0.00 0.00 40 1015.0
20260904034038 73 133 0.0 3.0 0.00 0.00 0.00 40 1015.1
20260904033538 74 0 0.0 3.0 0.00 0.00 0.00 39 1015.0
20260904033053 74 0 0.0 7.0 0.00 0.00 0.00 40 1014.9
20260904032537 75 0 0.0 7.0 0.00 0.00 0.00 38 1014.9
20260904032039 75 73 3.0 7.0 0.00 0.00 0.00 37 1014.7
20260904031555 75 87 3.0 9.0 0.00 0.00 0.00 39 1014.6
20260904031037 76 94 3.0 9.0 0.00 0.00 0.00 37 1014.5
20260904030537 76 73 4.0 9.0 0.00 0.00 0.00 36 1014.5
20260904025538 77 91 3.0 6.0 0.00 0.00 0.00 37 1014.6
20260904025038 77 84 3.0 8.0 0.00 0.00 0.00 36 1014.4
20260904024600 77 89 2.0 8.0 0.00 0.00 0.00 35 1014.4
20260904024037 77 98 4.0 8.0 0.00 0.00 0.00 36 1014.4
20260904023538 77 105 4.0 8.0 0.00 0.00 0.00 35 1014.3
20260904023056 77 103 4.0 8.0 0.00 0.00 0.00 36 1014.3
20260904022539 78 106 4.0 8.0 0.00 0.00 0.00 35 1014.2
20260904022037 78 102 4.0 10.0 0.00 0.00 0.00 34 1014.1
20260904021559 78 162 4.0 10.0 0.00 0.00 0.00 36 1014.1
20260904021037 78 158 6.0 9.0 0.00 0.00 0.00 35 1014.1
20260904020537 79 179 5.0 11.0 0.00 0.00 0.00 35 1014.0
20260904020055 79 162 6.0 11.0 0.00 0.00 0.00 36 1013.9
20260904015540 79 152 6.0 10.0 0.00 0.00 0.00 35 1013.9
20260904015037 80 156 6.0 10.0 0.00 0.00 0.00 34 1013.9
20260904014607 80 156 6.0 9.0 0.00 0.00 0.00 34 1013.9
20260904014038 80 154 5.0 10.0 0.00 0.00 0.00 32 1013.9
20260904013537 81 158 5.0 10.0 0.00 0.00 0.00 32 1013.9
20260904013120 81 347 4.0 10.0 0.00 0.00 0.00 33 1013.9
20260904012538 81 347 5.0 10.0 0.00 0.00 0.00 31 1013.9
20260904012037 82 347 5.0 9.0 0.00 0.00 0.00 30 1013.9
20260904011642 82 347 4.0 10.0 0.00 0.00 0.00 30 1013.9
20260904011037 83 347 5.0 12.0 0.00 0.00 0.00 32 1013.8
20260904010537 83 123 5.0 12.0 0.00 0.00 0.00 30 1013.9
20260904010054 83 79 7.0 11.0 0.00 0.00 0.00 30 1013.9
20260904005541 83 89 7.0 11.0 0.00 0.00 0.00 29 1013.8
20260904005037 83 90 5.0 9.0 0.00 0.00 0.00 29 1013.8
20260904004600 84 85 5.0 10.0 0.00 0.00 0.00 28 1013.8
20260904004037 84 92 5.0 10.0 0.00 0.00 0.00 28 1013.8
20260904003537 84 97 6.0 10.0 0.00 0.00 0.00 28 1013.8
20260904003058 84 80 7.0 11.0 0.00 0.00 0.00 29 1013.8
20260904002538 85 68 6.0 12.0 0.00 0.00 0.00 27 1013.8
20260904002038 85 81 8.0 15.0 0.00 0.00 0.00 26 1013.8
20260904001557 85 90 10.0 15.0 0.00 0.00 0.00 27 1013.8
20260904001037 85 77 7.0 15.0 0.00 0.00 0.00 27 1013.8
20260904000537 85 73 10.0 15.0 0.00 0.00 0.00 26 1013.8
20260904000053 85 87 10.0 14.0 0.00 0.00 0.00 26 1013.8
20260903235537 85 94 8.0 15.0 0.00 0.00 0.00 27 1013.7
20260903235037 85 88 7.0 16.0 0.00 0.00 0.00 26 1013.7
20260903234602 86 95 10.0 16.0 0.00 0.00 0.00 27 1013.7
20260903234037 86 73 9.0 16.0 0.00 0.00 0.00 25 1013.7
20260903233537 86 85 9.0 16.0 0.00 0.00 0.00 26 1013.7
20260903233059 86 95 10.0 16.0 0.00 0.00 0.00 26 1013.7
20260903232536 86 93 8.0 14.0 0.00 0.00 0.00 26 1013.8
20260903232037 86 72 9.0 15.0 0.00 0.00 0.00 24 1013.8
20260903231603 86 77 7.0 15.0 0.00 0.00 0.00 25 1013.8
20260903231038 86 81 9.0 15.0 0.00 0.00 0.00 26 1013.8
20260903230536 86 85 9.0 14.0 0.00 0.00 0.00 26 1013.9
20260903230058 86 72 10.0 14.0 0.00 0.00 0.00 25 1013.9
20260903225538 87 79 5.0 12.0 0.00 0.00 0.00 25 1013.9
20260903225038 87 65 6.0 10.0 0.00 0.00 0.00 25 1013.9
20260903224601 87 81 2.0 10.0 0.00 0.00 0.00 22 1014.0
20260903224037 87 149 4.0 10.0 0.00 0.00 0.00 22 1014.1
20260903223536 87 195 4.0 18.0 0.00 0.00 0.00 22 1014.1
20260903223104 87 148 7.0 18.0 0.00 0.00 0.00 22 1014.1
20260903222537 86 131 3.0 9.0 0.00 0.00 0.00 23 1014.0
20260903222038 87 74 1.0 12.0 0.00 0.00 0.00 25 1014.1
20260903221602 87 97 2.0 12.0 0.00 0.00 0.00 22 1014.2
20260903221037 87 88 5.0 15.0 0.00 0.00 0.00 23 1014.3
20260903220620 87 145 4.0 15.0 0.00 0.00 0.00 22 1014.3
20260903220059 87 136 5.0 15.0 0.00 0.00 0.00 22 1014.2
20260903215538 87 121 6.0 16.0 0.00 0.00 0.00 22 1014.3
20260903215037 87 123 7.0 16.0 0.00 0.00 0.00 23 1014.3
20260903214605 87 103 6.0 14.0 0.00 0.00 0.00 22 1014.3
20260903214039 87 170 6.0 14.0 0.00 0.00 0.00 23 1014.4
20260903213538 87 108 6.0 13.0 0.00 0.00 0.00 23 1014.3
20260903213052 87 152 5.0 14.0 0.00 0.00 0.00 23 1014.4
20260903212537 87 111 4.0 14.0 0.00 0.00 0.00 24 1014.4
20260903212038 87 128 5.0 14.0 0.00 0.00 0.00 24 1014.4
20260903211604 87 88 6.0 14.0 0.00 0.00 0.00 26 1014.5
20260903211036 86 101 5.0 14.0 0.00 0.00 0.00 25 1014.4
20260903210537 86 131 6.0 14.0 0.00 0.00 0.00 27 1014.6
20260903210140 87 113 7.0 14.0 0.00 0.00 0.00 25 1014.7
20260903205537 86 119 6.0 14.0 0.00 0.00 0.00 26 1014.7
20260903205037 86 125 6.0 14.0 0.00 0.00 0.00 26 1014.9
20260903204602 86 75 7.0 16.0 0.00 0.00 0.00 27 1014.8
20260903204037 86 129 4.0 16.0 0.00 0.00 0.00 25 1014.9
20260903203537 86 119 3.0 14.0 0.00 0.00 0.00 26 1015.1
20260903203058 86 118 4.0 14.0 0.00 0.00 0.00 26 1015.1
20260903202537 86 127 3.0 14.0 0.00 0.00 0.00 25 1015.2
20260903202038 86 168 5.0 14.0 0.00 0.00 0.00 27 1015.2
20260903201559 85 136 7.0 15.0 0.00 0.00 0.00 28 1015.2
20260903201036 85 84 7.0 17.0 0.00 0.00 0.00 28 1015.1
20260903200536 85 91 9.0 17.0 0.00 0.00 0.00 27 1015.0
20260903200115 85 144 7.0 16.0 0.00 0.00 0.00 28 1015.2
20260903195541 85 70 9.0 16.0 0.00 0.00 0.00 26 1015.3
20260903195039 86 99 7.0 14.0 0.00 0.00 0.00 28 1015.3
20260903194555 86 144 7.0 14.0 0.00 0.00 0.00 26 1015.2
20260903194037 86 78 1.0 6.0 0.00 0.00 0.00 25 1015.3
20260903193537 86 86 1.0 13.0 0.00 0.00 0.00 28 1015.3
20260903193057 86 87 2.0 13.0 0.00 0.00 0.00 26 1015.4
20260903192537 85 314 6.0 13.0 0.00 0.00 0.00 22 1015.5
20260903192036 85 66 1.0 7.0 0.00 0.00 0.00 23 1015.5
20260903191604 85 352 3.0 8.0 0.00 0.00 0.00 22 1015.6
20260903191037 85 0 2.0 8.0 0.00 0.00 0.00 26 1015.6
20260903190539 85 94 3.0 8.0 0.00 0.00 0.00 24 1015.6
20260903190059 85 74 3.0 7.0 0.00 0.00 0.00 24 1015.8
20260903185536 85 14 0.0 10.0 0.00 0.00 0.00 27 1015.8
20260903185036 85 100 4.0 10.0 0.00 0.00 0.00 24 1016.0
20260903184559 85 126 3.0 9.0 0.00 0.00 0.00 27 1016.0
20260903184041 85 90 3.0 13.0 0.00 0.00 0.00 28 1016.0
20260903183537 85 144 5.0 13.0 0.00 0.00 0.00 28 1016.0
20260903183057 85 143 4.0 10.0 0.00 0.00 0.00 26 1016.2
20260903182537 84 101 3.0 10.0 0.00 0.00 0.00 27 1016.2
20260903182036 84 122 3.0 10.0 0.00 0.00 0.00 27 1016.3
20260903181556 84 142 3.0 10.0 0.00 0.00 0.00 28 1016.4
20260903181036 84 89 2.0 8.0 0.00 0.00 0.00 26 1016.4
20260903180537 83 190 2.0 9.0 0.00 0.00 0.00 27 1016.5
20260903180058 84 123 3.0 10.0 0.00 0.00 0.00 30 1016.5
20260903175537 84 119 4.0 10.0 0.00 0.00 0.00 31 1016.6
20260903175037 84 140 2.0 7.0 0.00 0.00 0.00 31 1016.7
20260903174553 83 156 2.0 7.0 0.00 0.00 0.00 31 1016.8
20260903174037 82 181 1.0 6.0 0.00 0.00 0.00 31 1016.8
20260903173537 82 83 3.0 6.0 0.00 0.00 0.00 29 1016.8
20260903173058 81 117 1.0 6.0 0.00 0.00 0.00 33 1016.8
20260903172537 81 148 2.0 6.0 0.00 0.00 0.00 33 1016.8
20260903172037 82 179 2.0 7.0 0.00 0.00 0.00 31 1016.8